Weather History for Rochester, NY

Change the Weather History Date:

Saturday, August 30, 2014

  Actual Average Record
Temperature  
Mean Temperature 72 °F 67 °F  
Max Temperature 87 °F 77 °F 96 °F (1953)
Min Temperature 57 °F 57 °F 36 °F (1965)
Degree Days  
Heating Degree Days 0 1  
Month to date heating degree days 18 20  
Since 1 June heating degree days 54 100  
Since 1 July heating degree days 25 32  
Cooling Degree Days 7 4  
Month to date cooling degree days 117 153  
Year to date cooling degree days 456 482  
Since 1 June cooling degree days 417 452  
Growing Degree Days 22 (Base 50)    
Moisture  
Dew Point 61 °F    
Average Humidity 69    
Maximum Humidity 86    
Minimum Humidity 51    
Precipitation  
Precipitation 0.00 in 0.10 in 3.34 in (1886)
Month to date precipitation 2.14 3.36  
Year to date precipitation 24.90 22.49  
Snow  
Snow 0.00 in 0.00 in 0.00 in ()
Month to date snowfall 0.0 0.0  
Since 1 June snowfall 0.0 0.0  
Since 1 July snowfall 0.0 0.0  
Snow Depth 0.00 in    
Sea Level Pressure  
Sea Level Pressure 30.05 in    
Wind  
Wind Speed 8 mph (SSW)    
Max Wind Speed 16 mph    
Max Gust Speed 23 mph    
Visibility 10 miles    
Events      
T = Trace of Precipitation, MM = Missing Value Source: NWS Daily Summary

Daily Weather History Graph

Daily Weather History Graph

Search for Another Location

Airport:

Trip Planner

Search our weather history database for the weather conditions in past years. The results will help you decide how hot, cold, wet, or windy it might be!

Date:

Astronomy

Aug. 30, 2014 Rise Set
Actual Time 6:32 AM EDT 7:49 PM EDT
Civil Twilight 6:03 AM EDT 8:18 PM EDT
Nautical Twilight 5:28 AM EDT 8:53 PM EDT
Astronomical Twilight 4:50 AM EDT 9:30 PM EDT
Moon 11:26 AM EDT (8/30) 10:13 PM EDT (8/30)
Length of Visible Light 14h 14m
Length of Day
13h 16m
Waxing Crescent, 23% of the Moon is Illuminated
Aug 30
Waxing Crescent
Sep 2
First Quarter
Sep 8
Full
Sep 15
Last Quarter
Sep 24
New

Hourly Weather History & Observations

Time (EDT) Temp. Heat Index Dew Point Humidity Pressure Visibility Wind Dir Wind Speed Gust Speed Precip Events Conditions
12:54 AM 63.0 °F - 55.0 °F 75% 30.14 in 10.0 mi South 4.6 mph - N/A   Partly Cloudy
1:54 AM 63.0 °F - 55.0 °F 75% 30.13 in 10.0 mi South 3.5 mph - N/A   Mostly Cloudy
2:54 AM 61.0 °F - 55.0 °F 81% 30.13 in 10.0 mi Calm Calm - N/A   Partly Cloudy
3:54 AM 61.0 °F - 54.0 °F 78% 30.12 in 10.0 mi SSW 3.5 mph - N/A   Partly Cloudy
4:54 AM 61.0 °F - 54.0 °F 78% 30.10 in 10.0 mi Calm Calm - N/A   Partly Cloudy
5:54 AM 57.9 °F - 54.0 °F 87% 30.11 in 10.0 mi WSW 3.5 mph - N/A   Clear
6:54 AM 57.9 °F - 54.0 °F 87% 30.11 in 10.0 mi SW 4.6 mph - N/A   Partly Cloudy
7:54 AM 62.1 °F - 55.9 °F 80% 30.11 in 10.0 mi SW 5.8 mph - N/A   Scattered Clouds
8:54 AM 66.9 °F - 57.0 °F 70% 30.10 in 10.0 mi SW 11.5 mph - N/A   Scattered Clouds
9:54 AM 71.1 °F - 57.9 °F 63% 30.10 in 10.0 mi SSW 12.7 mph - N/A   Scattered Clouds
10:54 AM 75.0 °F - 59.0 °F 57% 30.09 in 10.0 mi SSW 12.7 mph - N/A   Scattered Clouds
11:54 AM 78.1 °F - 61.0 °F 56% 30.07 in 10.0 mi South 6.9 mph - N/A   Scattered Clouds
12:54 PM 80.1 °F 81.2 °F 62.1 °F 54% 30.05 in 10.0 mi South 8.1 mph - N/A   Mostly Cloudy
1:54 PM 82.0 °F 83.4 °F 64.0 °F 54% 30.04 in 10.0 mi South 8.1 mph - N/A   Mostly Cloudy
2:54 PM 84.9 °F 87.1 °F 66.0 °F 53% 30.01 in 10.0 mi South 11.5 mph - N/A   Mostly Cloudy
3:54 PM 86.0 °F 88.8 °F 66.9 °F 53% 29.99 in 10.0 mi SSW 9.2 mph 16.1 mph N/A   Scattered Clouds
4:54 PM 86.0 °F 89.4 °F 68.0 °F 55% 29.97 in 10.0 mi South 9.2 mph - N/A   Mostly Cloudy
5:54 PM 86.0 °F 88.8 °F 66.9 °F 53% 29.94 in 10.0 mi SSW 9.2 mph - N/A   Mostly Cloudy
6:54 PM 82.0 °F 84.5 °F 66.9 °F 60% 29.95 in 10.0 mi NW 5.8 mph - N/A   Mostly Cloudy
7:54 PM 80.1 °F 82.7 °F 68.0 °F 67% 29.95 in 10.0 mi SSW 3.5 mph - N/A   Mostly Cloudy
8:54 PM 80.1 °F 82.7 °F 68.0 °F 67% 29.96 in 10.0 mi South 8.1 mph - N/A   Mostly Cloudy
9:54 PM 78.1 °F - 68.0 °F 71% 29.97 in 10.0 mi SSW 9.2 mph - N/A   Mostly Cloudy
10:54 PM 77.0 °F - 66.9 °F 71% 29.96 in 10.0 mi SSW 9.2 mph - N/A   Mostly Cloudy
11:54 PM 77.0 °F - 66.9 °F 71% 29.95 in 10.0 mi SSW 11.5 mph 21.9 mph N/A   Mostly Cloudy